QPF
0.00 0.01 0.03 0.03 0.00 0.00 0.00 0.00 0.00 0.00 0.00 0.00 0.00 0.01 0.00 0.00 0.00 0.00 0.00 0.00 0.00 0.00 0.00 0.00 0.00 0.00 0.00 0.00 0.00 0.00 0.00 0.00 0.00 0.00 0.00 0.00 0.00 0.00 0.00 0.00 0.00 0.00 0.00 0.00
0.00 0.00 0.00 0.00 0.00 0.00 0.00 0.00 0.00 0.00 0.00 0.00 0.00 0.01 0.00 0.00 0.00 0.00 0.00 0.00 0.00 0.00 0.00 0.00 0.00 0.00 0.00 0.00 0.00 0.00 0.00 0.00 0.00 0.00 0.00 0.00 0.00 0.00 0.00 0.00 0.00 0.00 0.00 0.00
0.00 0.00 0.00 0.00 0.00 0.00 0.00 0.00 0.00 0.00 0.00 0.00 0.00 0.00 0.00 0.00 0.00 0.00 0.00 0.00 0.00 0.00 0.00 0.00 0.00 0.00 0.00 0.00 0.00 0.00 0.00 0.00 0.00 0.00 0.00 0.00 0.00 0.00 0.00 0.00 0.00 0.00 0.00 0.00
0.00 0.00 0.01 0.00 0.00 0.00 0.00 0.00 0.00 0.00 0.00 0.00 0.00 0.00 0.00 0.00 0.00 0.00 0.00 0.00 0.00 0.00 0.00 0.00 0.00 0.00 0.00 0.00 0.00 0.00 0.00 0.00 0.00 0.00 0.00 0.00 0.00 0.00 0.00 0.00 0.00 0.00 0.00 0.00
0.00 0.00 0.00 0.00 0.00 0.00 0.00 0.00 0.00 0.00 0.00 0.00 0.00 0.00 0.00 0.00 0.00 0.00 0.00 0.00 0.00 0.00 0.00 0.00 0.00 0.00 0.00 0.00 0.00 0.00 0.00 0.00 0.00 0.00 0.00 0.00 0.00 0.00 0.00 0.00 0.00 0.00 0.00 0.00
0.00 0.00 0.00 0.00 0.00 0.00 0.00 0.00 0.00 0.00 0.00 0.00 0.00 0.00 0.00 0.00 0.00 0.00 0.00 0.00 0.00 0.00 0.00 0.00 0.00 0.00 0.00 0.00 0.00 0.00 0.00 0.00 0.00 0.00 0.00 0.00 0.00 0.00 0.00 0.00 0.00 0.00 0.00 0.00
0.00 0.00 0.00 0.00 0.00 0.00 0.00 0.00 0.00 0.00 0.00 0.00 0.00 0.00 0.00 0.00 0.00 0.00 0.00 0.00 0.00 0.00 0.00 0.00 0.00 0.00 0.00 0.00 0.00 0.00 0.00 0.00 0.00 0.00 0.00 0.00 0.00 0.00 0.00 0.00 0.00 0.00 0.00 0.00
0.00 0.00 0.00 0.00 0.00 0.00 0.00 0.00 0.00 0.00 0.00 0.00 0.00 0.00 0.00 0.00 0.00 0.00 0.00 0.00 0.00 0.00 0.00 0.00 0.00 0.00 0.00 0.00 0.00 0.00 0.00 0.00 0.00 0.00 0.00 0.00 0.00 0.00 0.00 0.00 0.00 0.00 0.00 0.00
0.00 0.00 0.00 0.00 0.00 0.00 0.00 0.00 0.00 0.00 0.00 0.00 0.00 0.00 0.00 0.00 0.00 0.00 0.00 0.00 0.00 0.00 0.00 0.00 0.00 0.00 0.00 0.00 0.00 0.00 0.00 0.00 0.00 0.00 0.00 0.00 0.00 0.00 0.00 0.00 0.00 0.00 0.00 0.00
0.00 0.00 0.00 0.00 0.00 0.00 0.00 0.00 0.00 0.00 0.00 0.00 0.00 0.00 0.00 0.00 0.00 0.00 0.00 0.00 0.00 0.00 0.00 0.00 0.00 0.00 0.00 0.00 0.00 0.00 0.00 0.00 0.00 0.00 0.00 0.00 0.00 0.00 0.00 0.00 0.00 0.00 0.00 0.00
0.00 0.00 0.00 0.00 0.00 0.00 0.00 0.00 0.00 0.00 0.00 0.00 0.00 0.00 0.00 0.00 0.00 0.00 0.00 0.00 0.00 0.00 0.00 0.00 0.00 0.00 0.00 0.00 0.00 0.00 0.00 0.00 0.00 0.00 0.00 0.00 0.00 0.00 0.00 0.00 0.00 0.00 0.00 0.00
0.00 0.00 0.00 0.00 0.00 0.00 0.00 0.00 0.00 0.00 0.00 0.00 0.00 0.00 0.00 0.00 0.00 0.00 0.00 0.00 0.00 0.00 0.00 0.00 0.00 0.00 0.00 0.00 0.00 0.00 0.00 0.00 0.00 0.02 0.02 0.14 0.11 0.03 0.00 0.00 0.00 0.00 0.00 0.00
0.01 0.00 0.00 0.00 0.00 0.00 0.00 0.00 0.00 0.00 0.00 0.00 0.00 0.00 0.00 0.00 0.00 0.00 0.00 0.00 0.00 0.00 0.00 0.00 0.00 0.00 0.00 0.00 0.00 0.00 0.00 0.01 0.01 0.05 0.20 0.16 0.10 0.06 0.01 0.00 0.00 0.00 0.00 0.00
0.01 0.01 0.00 0.00 0.00 0.00 0.00 0.00 0.00 0.00 0.00 0.00 0.00 0.00 0.00 0.00 0.00 0.00 0.00 0.00 0.00 0.00 0.00 0.00 0.00 0.00 0.00 0.00 0.00 0.03 0.13 0.08 0.16 0.35 0.22 0.08 0.04 0.03 0.04 0.02 0.00 0.00 0.00 0.00
0.00 0.00 0.00 0.00 0.00 0.00 0.00 0.00 0.00 0.00 0.00 0.00 0.00 0.00 0.00 0.00 0.00 0.00 0.00 0.00 0.00 0.00 0.00 0.00 0.00 0.00 0.00 0.00 0.00 0.05 0.05 0.11 0.16 0.15 0.06 0.08 0.08 0.14 0.16 0.13 0.09 0.04 0.03 0.19
0.00 0.00 0.00 0.00 0.00 0.00 0.00 0.00 0.00 0.00 0.00 0.00 0.00 0.00 0.00 0.00 0.00 0.00 0.00 0.00 0.00 0.00 0.00 0.00 0.00 0.00 0.00 0.00 0.01 0.01 0.03 0.03 0.01 0.00 0.02 0.11 0.12 0.14 0.20 0.26 0.19 0.11 0.14 0.24
0.00 0.00 0.00 0.00 0.00 0.00 0.00 0.00 0.00 0.00 0.00 0.00 0.00 0.00 0.00 0.00 0.00 0.00 0.00 0.00 0.00 0.00 0.00 0.00 0.00 0.00 0.00 0.00 0.00 0.00 0.00 0.00 0.00 0.01 0.03 0.15 0.14 0.16 0.14 0.16 0.14 0.09 0.11 0.26
0.00 0.00 0.00 0.00 0.00 0.00 0.00 0.00 0.00 0.00 0.00 0.00 0.00 0.00 0.00 0.00 0.00 0.00 0.00 0.00 0.00 0.00 0.00 0.00 0.00 0.00 0.00 0.00 0.00 0.00 0.00 0.00 0.00 0.03 0.03 0.06 0.03 0.02 0.01 0.03 0.04 0.05 0.13 0.15
0.00 0.00 0.00 0.00 0.00 0.00 0.00 0.00 0.00 0.00 0.00 0.00 0.00 0.00 0.00 0.00 0.00 0.00 0.00 0.00 0.00 0.00 0.00 0.00 0.00 0.00 0.00 0.00 0.00 0.00 0.00 0.00 0.02 0.02 0.03 0.02 0.02 0.02 0.01 0.02 0.02 0.02 0.04 0.04
0.00 0.00 0.00 0.00 0.00 0.00 0.00 0.00 0.00 0.00 0.00 0.00 0.00 0.00 0.00 0.00 0.00 0.00 0.00 0.00 0.00 0.00 0.00 0.00 0.00 0.00 0.00 0.00 0.00 0.00 0.00 0.00 0.00 0.00 0.00 0.00 0.00 0.00 0.00 0.00 0.00 0.00 0.01 0.01
0.00 0.00 0.00 0.00 0.00 0.00 0.00 0.00 0.00 0.00 0.00 0.00 0.00 0.00 0.00 0.00 0.00 0.00 0.00 0.00 0.00 0.00 0.00 0.00 0.00 0.00 0.00 0.00 0.00 0.00 0.00 0.00 0.00 0.00 0.00 0.00 0.00 0.00 0.00 0.00 0.00 0.00 0.01 0.00
0.00 0.00 0.00 0.00 0.00 0.00 0.00 0.00 0.00 0.00 0.00 0.00 0.00 0.00 0.00 0.00 0.00 0.00 0.00 0.00 0.00 0.00 0.00 0.00 0.00 0.00 0.00 0.00 0.00 0.00 0.00 0.00 0.00 0.00 0.00 0.00 0.00 0.00 0.00 0.00 0.00 0.00 0.00 0.01
0.00 0.00 0.00 0.00 0.00 0.00 0.00 0.00 0.00 0.00 0.00 0.00 0.00 0.00 0.00 0.00 0.00 0.00 0.00 0.00 0.00 0.00 0.00 0.00 0.00 0.00 0.00 0.00 0.00 0.00 0.00 0.00 0.01 0.00 0.00 0.00 0.00 0.00 0.00 0.00 0.00 0.00 0.00 0.00
0.00 0.00 0.00 0.00 0.00 0.00 0.00 0.00 0.00 0.00 0.00 0.00 0.00 0.00 0.00 0.00 0.00 0.00 0.00 0.00 0.00 0.00 0.00 0.00 0.00 0.00 0.01 0.00 0.00 0.00 0.02 0.02 0.01 0.01 0.00 0.00 0.00 0.00 0.00 0.00 0.00 0.00 0.00 0.02
0.00 0.00 0.00 0.00 0.00 0.00 0.00 0.00 0.00 0.00 0.00 0.00 0.00 0.00 0.00 0.00 0.00 0.00 0.00 0.00 0.00 0.00 0.00 0.00 0.00 0.01 0.01 0.00 0.00 0.04 0.06 0.03 0.02 0.01 0.00 0.00 0.00 0.00 0.00 0.00 0.00 0.00 0.00 0.04
0.00 0.00 0.00 0.00 0.00 0.00 0.00 0.00 0.00 0.00 0.00 0.00 0.00 0.00 0.00 0.00 0.00 0.00 0.00 0.00 0.00 0.00 0.00 0.00 0.00 0.01 0.02 0.01 0.06 0.08 0.08 0.13 0.14 0.06 0.02 0.01 0.00 0.00 0.00 0.00 0.00 0.01 0.02 0.03
MSLP
1008.13 1008.51 1008.64 1008.48 1007.86 1007.16 1006.76 1006.79 1006.42 1005.40 1004.42 1004.97 1005.30 1005.35 1005.74 1006.01 1006.49 1006.64 1006.85 1006.85 1006.95 1007.24 1007.28 1007.58 1007.89 1008.20 1008.72 1009.25 1009.83 1010.39 1010.79 1010.95 1011.38 1011.96 1012.46 1012.62 1012.58 1012.52 1012.39 1012.22 1011.90 1012.13 1012.30 1012.54
1008.09 1007.76 1007.18 1007.28 1006.77 1006.65 1006.28 1006.08 1005.12 1003.94 1003.51 1005.02 1005.42 1005.68 1005.39 1005.77 1005.76 1005.66 1006.09 1006.47 1006.59 1006.91 1007.24 1007.44 1007.50 1007.82 1008.28 1008.68 1009.19 1009.68 1009.93 1010.28 1010.56 1010.84 1011.22 1011.67 1011.98 1012.09 1012.04 1011.82 1011.52 1011.42 1011.54 1011.66
1007.90 1006.89 1005.99 1006.02 1005.41 1005.25 1004.81 1004.57 1003.87 1003.67 1003.96 1004.74 1005.81 1006.74 1006.36 1005.40 1005.42 1005.46 1005.42 1005.61 1005.78 1006.05 1006.39 1006.66 1006.96 1007.04 1007.32 1007.77 1007.98 1008.18 1008.48 1008.97 1009.56 1009.99 1010.64 1011.12 1011.45 1011.64 1011.82 1011.78 1011.60 1011.33 1011.20 1011.22
1007.04 1006.05 1005.11 1004.24 1003.56 1003.26 1003.27 1002.42 1002.61 1003.57 1004.60 1006.06 1006.31 1007.43 1006.25 1005.42 1005.05 1004.80 1004.86 1005.29 1005.15 1005.26 1005.45 1005.66 1005.68 1006.10 1006.41 1006.75 1007.18 1007.55 1007.66 1007.81 1008.21 1008.95 1009.52 1009.94 1010.34 1010.88 1010.86 1011.10 1011.16 1011.17 1010.88 1010.92
1005.68 1004.80 1004.00 1003.32 1002.38 1002.42 1002.21 1002.30 1002.72 1003.43 1005.32 1006.35 1007.10 1006.91 1005.73 1005.24 1004.98 1004.38 1004.23 1004.33 1004.29 1004.19 1004.42 1004.65 1004.88 1004.91 1005.32 1005.73 1006.46 1007.00 1007.57 1007.84 1007.88 1008.14 1008.44 1008.70 1008.92 1009.19 1009.56 1010.16 1010.54 1010.40 1010.38 1010.35
1005.14 1004.28 1003.85 1002.24 1001.43 1001.46 1001.91 1002.12 1003.03 1004.95 1006.12 1007.36 1006.59 1006.72 1005.85 1004.70 1003.88 1003.61 1003.24 1003.36 1003.27 1003.35 1003.62 1003.79 1003.88 1004.43 1004.77 1005.42 1006.03 1006.38 1006.96 1007.36 1007.55 1007.82 1007.98 1008.36 1008.56 1008.59 1008.80 1009.15 1009.74 1010.00 1009.78 1009.68
1004.83 1003.40 1002.00 1001.33 1001.29 1000.64 1001.06 1002.88 1004.60 1006.35 1007.40 1007.30 1006.52 1006.39 1004.68 1003.53 1002.94 1002.35 1002.31 1002.49 1002.48 1002.41 1003.01 1003.55 1004.12 1004.21 1004.64 1005.18 1005.14 1005.52 1005.80 1005.56 1005.78 1006.39 1007.03 1007.16 1007.50 1007.96 1008.16 1008.38 1008.71 1009.28 1009.64 1009.55
1005.28 1003.57 1001.72 1000.62 1000.64 1000.60 1000.94 1002.54 1004.40 1006.25 1007.47 1007.43 1006.68 1005.69 1003.44 1001.96 1001.72 1001.88 1001.83 1001.96 1002.15 1003.22 1003.33 1003.64 1003.63 1003.79 1004.11 1004.28 1004.32 1004.44 1004.78 1005.18 1005.44 1005.17 1005.02 1005.50 1006.32 1006.67 1007.08 1007.55 1008.06 1008.24 1008.73 1009.01
1005.07 1003.72 1001.71 1000.80 1000.07 1000.03 1000.60 1001.90 1002.71 1004.89 1006.72 1007.32 1006.72 1004.72 1002.95 1002.07 1002.03 1002.18 1002.47 1002.36 1002.64 1002.59 1003.12 1003.36 1003.50 1003.15 1003.34 1003.66 1003.66 1003.69 1003.94 1004.02 1004.28 1004.27 1005.14 1005.82 1006.45 1007.38 1006.80 1006.61 1007.13 1007.29 1007.38 1007.84
1005.02 1004.36 1002.27 1000.90 999.96 999.78 1000.31 1001.26 1002.76 1005.02 1006.93 1007.58 1006.71 1005.61 1004.39 1003.15 1002.77 1002.85 1004.00 1003.54 1003.64 1003.56 1003.54 1003.44 1003.50 1003.26 1003.37 1003.40 1002.92 1003.16 1003.62 1003.55 1003.86 1004.62 1005.64 1005.98 1006.51 1006.02 1005.90 1006.26 1006.89 1007.28 1007.14 1007.41
1005.08 1005.21 1003.49 1002.34 1001.11 1000.67 1000.80 1001.44 1003.03 1005.08 1006.28 1007.44 1007.50 1006.66 1004.72 1003.74 1003.99 1004.50 1004.95 1004.92 1004.81 1004.74 1004.59 1004.31 1004.12 1003.94 1003.60 1003.31 1003.20 1003.50 1003.50 1003.45 1003.88 1004.93 1005.68 1005.94 1005.04 1005.44 1005.30 1005.89 1006.79 1006.95 1006.92 1006.90
1004.82 1005.44 1004.95 1003.18 1001.23 1000.90 1000.56 1001.46 1002.88 1005.27 1006.36 1007.10 1007.19 1007.47 1005.88 1004.72 1004.77 1004.75 1005.27 1005.27 1005.38 1005.36 1005.53 1005.34 1005.00 1004.73 1004.50 1004.15 1004.19 1004.23 1004.17 1004.34 1005.31 1005.72 1005.41 1005.20 1002.93 1004.75 1006.21 1006.39 1006.44 1006.15 1006.13 1006.17
1004.56 1005.22 1005.32 1003.22 1001.62 1000.88 1001.02 1001.56 1002.32 1003.90 1005.40 1006.66 1007.44 1007.84 1006.96 1005.90 1005.56 1005.49 1005.47 1005.84 1005.83 1005.80 1005.64 1005.40 1005.09 1004.97 1004.81 1004.79 1005.76 1005.39 1005.55 1005.68 1006.27 1006.42 1006.01 1005.61 1005.42 1007.48 1006.42 1005.76 1005.62 1005.78 1005.91 1005.67
1004.16 1004.61 1004.63 1003.83 1002.82 1002.18 1001.84 1001.97 1002.44 1003.74 1005.45 1007.00 1007.34 1007.47 1007.29 1006.44 1006.28 1006.19 1006.24 1006.17 1006.21 1006.28 1006.37 1006.20 1005.99 1005.70 1005.36 1005.76 1006.29 1006.02 1005.47 1004.49 1006.21 1007.01 1006.32 1005.87 1005.32 1006.29 1006.24 1005.33 1005.16 1005.36 1005.38 1005.59
1004.26 1004.44 1004.23 1003.54 1002.85 1002.11 1002.16 1002.32 1002.50 1003.61 1004.54 1005.86 1007.25 1007.26 1006.93 1006.68 1006.72 1006.79 1006.70 1006.52 1006.49 1006.64 1006.72 1006.72 1006.74 1006.36 1006.18 1006.46 1006.77 1006.94 1006.96 1006.94 1007.99 1007.73 1006.87 1006.71 1006.37 1006.15 1005.45 1005.27 1004.26 1004.42 1004.34 1005.20
1003.49 1003.86 1003.96 1003.91 1003.02 1002.71 1002.88 1002.72 1003.40 1004.06 1004.88 1005.97 1006.66 1007.10 1007.05 1007.02 1006.90 1007.12 1007.26 1007.19 1007.36 1007.39 1007.49 1007.24 1007.12 1007.13 1006.88 1006.75 1006.95 1007.04 1007.36 1007.44 1007.06 1007.03 1006.62 1006.35 1005.39 1004.98 1005.15 1005.38 1006.13 1005.35 1005.73 1004.87
1003.15 1003.85 1004.74 1004.76 1004.02 1003.50 1003.80 1003.77 1003.80 1004.76 1005.60 1005.98 1007.30 1007.43 1007.38 1007.50 1007.50 1007.45 1007.56 1007.78 1007.88 1007.92 1007.95 1007.88 1007.85 1007.81 1007.51 1007.28 1007.22 1007.24 1007.11 1007.24 1007.20 1006.75 1006.16 1005.84 1005.78 1005.11 1005.26 1005.99 1005.46 1005.28 1004.51 1004.12
1003.66 1004.75 1005.63 1006.33 1005.46 1005.58 1005.58 1004.83 1004.76 1005.41 1006.61 1006.93 1007.36 1007.67 1007.52 1007.69 1007.72 1007.79 1007.80 1007.96 1008.18 1008.25 1008.26 1008.17 1008.19 1008.06 1007.94 1007.67 1007.42 1007.28 1007.04 1007.08 1006.95 1006.66 1006.19 1005.73 1005.71 1005.43 1005.34 1005.14 1004.45 1004.45 1003.95 1003.62
1003.74 1005.54 1007.74 1008.18 1008.12 1007.36 1005.54 1005.02 1005.45 1006.23 1007.76 1007.71 1007.81 1007.88 1007.77 1007.67 1007.85 1008.17 1008.07 1008.00 1008.21 1008.23 1008.25 1008.24 1008.06 1008.01 1007.91 1007.80 1007.65 1007.52 1007.39 1007.16 1006.88 1006.65 1006.30 1005.76 1005.33 1005.00 1004.60 1004.00 1003.72 1003.53 1003.38 1003.25
1005.28 1005.94 1007.72 1009.40 1009.28 1008.00 1005.94 1005.06 1005.09 1005.90 1007.70 1007.85 1007.50 1007.71 1007.79 1007.81 1008.48 1008.52 1008.22 1008.00 1008.05 1008.02 1007.96 1007.92 1007.84 1007.88 1007.75 1007.67 1007.55 1007.52 1007.43 1007.28 1007.00 1006.49 1005.98 1005.52 1005.11 1004.70 1004.30 1003.86 1003.41 1002.86 1002.47 1002.16
1006.83 1007.97 1008.95 1009.55 1009.04 1007.72 1005.68 1005.14 1005.04 1006.52 1007.84 1007.57 1007.33 1007.59 1007.83 1008.32 1008.54 1008.41 1008.34 1008.15 1007.95 1007.81 1007.66 1007.56 1007.48 1007.46 1007.54 1007.27 1007.13 1007.01 1006.86 1006.52 1005.97 1005.85 1005.68 1005.35 1004.96 1004.55 1004.09 1003.62 1003.18 1002.76 1002.31 1001.98
1006.83 1008.06 1008.87 1009.44 1009.17 1007.59 1005.79 1005.42 1006.34 1007.37 1007.39 1007.34 1007.59 1007.79 1008.14 1008.31 1008.48 1008.52 1008.44 1008.23 1007.96 1007.75 1007.52 1007.46 1007.40 1007.32 1007.03 1006.82 1006.80 1006.54 1006.36 1005.92 1006.00 1005.54 1005.28 1005.06 1004.68 1004.26 1003.78 1003.26 1002.83 1002.48 1002.02 1001.69
1006.51 1006.60 1007.56 1008.69 1008.48 1007.80 1006.68 1006.64 1007.05 1007.28 1007.42 1007.62 1007.74 1007.99 1008.26 1008.56 1008.71 1008.60 1008.52 1008.35 1008.20 1007.87 1007.56 1007.39 1007.46 1007.32 1007.25 1007.08 1007.12 1007.00 1006.23 1005.68 1004.91 1004.89 1004.68 1004.32 1003.98 1003.44 1002.97 1002.64 1002.02 1001.70 1001.17 1000.84
1005.81 1005.94 1007.38 1008.26 1008.89 1008.26 1007.69 1007.32 1007.23 1007.23 1007.50 1007.68 1007.93 1008.14 1008.25 1008.55 1008.58 1008.72 1008.68 1008.70 1008.65 1008.28 1008.18 1008.12 1008.04 1008.15 1007.82 1007.46 1007.01 1006.52 1006.04 1005.29 1004.98 1004.35 1004.25 1003.70 1003.16 1002.65 1002.06 1001.60 1001.08 1000.81 1000.31 999.85
1006.30 1006.30 1007.96 1009.06 1008.98 1008.51 1008.12 1007.78 1007.64 1007.60 1007.78 1007.81 1007.94 1008.13 1008.29 1008.33 1008.57 1008.76 1008.99 1009.17 1009.04 1008.80 1008.59 1008.49 1008.47 1008.34 1008.10 1007.50 1007.09 1006.38 1005.41 1004.64 1004.34 1004.09 1003.70 1003.21 1002.69 1001.96 1001.28 1000.75 1000.31 1000.00 999.29 998.94
1006.70 1007.03 1007.79 1008.87 1008.63 1008.57 1008.62 1008.11 1007.96 1008.08 1008.28 1008.22 1008.25 1008.31 1008.42 1008.63 1008.81 1009.01 1009.37 1009.33 1009.19 1009.12 1008.98 1008.90 1008.79 1008.44 1007.95 1007.37 1006.81 1006.12 1005.64 1005.07 1004.62 1004.12 1003.52 1003.03 1002.39 1001.58 1000.91 1000.40 999.36 998.59 998.37 998.06
Thickness
5830 5812 5803 5818 5827 5838 5836 5820 5817 5836 5866 5853 5843 5847 5851 5854 5850 5847 5843 5846 5848 5848 5857 5858 5857 5856 5853 5848 5843 5838 5834 5834 5830 5825 5819 5817 5816 5818 5819 5821 5821 5819 5815 5811
5823 5813 5836 5840 5845 5838 5833 5822 5823 5853 5871 5851 5844 5842 5860 5859 5853 5857 5853 5850 5853 5852 5852 5856 5859 5859 5856 5854 5851 5847 5845 5842 5840 5838 5834 5828 5824 5821 5822 5823 5823 5824 5822 5819
5813 5834 5851 5843 5844 5837 5837 5833 5839 5846 5859 5859 5840 5823 5834 5857 5858 5861 5865 5865 5865 5862 5858 5860 5861 5862 5862 5859 5859 5859 5857 5854 5849 5845 5838 5833 5828 5825 5819 5817 5818 5820 5820 5818
5827 5848 5851 5853 5853 5860 5829 5870 5872 5858 5837 5800 5840 5784 5833 5844 5849 5861 5866 5864 5870 5871 5870 5869 5870 5866 5866 5865 5866 5864 5863 5862 5859 5852 5845 5839 5832 5822 5824 5819 5818 5816 5816 5815
5836 5845 5854 5850 5859 5871 5853 5880 5868 5866 5829 5822 5821 5801 5821 5845 5838 5855 5862 5869 5873 5877 5877 5875 5876 5880 5878 5877 5872 5868 5861 5858 5858 5855 5849 5843 5840 5838 5832 5825 5818 5818 5817 5816
5846 5868 5860 5864 5881 5881 5884 5876 5868 5840 5823 5789 5816 5811 5811 5830 5846 5855 5868 5874 5879 5879 5882 5884 5888 5883 5882 5879 5875 5870 5863 5858 5856 5852 5848 5842 5838 5836 5831 5827 5818 5814 5813 5813
5837 5852 5878 5886 5865 5882 5879 5842 5789 5791 5786 5788 5815 5811 5823 5855 5863 5872 5874 5874 5883 5886 5882 5879 5877 5880 5877 5872 5875 5874 5869 5869 5869 5862 5851 5847 5841 5835 5831 5826 5821 5813 5808 5807
5807 5809 5869 5891 5874 5865 5872 5846 5797 5781 5778 5788 5823 5807 5834 5877 5885 5887 5884 5884 5886 5873 5875 5873 5879 5881 5878 5876 5876 5877 5877 5871 5865 5865 5864 5857 5845 5839 5833 5827 5816 5811 5806 5801
5811 5822 5877 5887 5893 5890 5873 5847 5866 5820 5809 5792 5800 5840 5864 5879 5880 5882 5874 5880 5879 5880 5879 5878 5880 5883 5882 5880 5881 5879 5874 5874 5871 5867 5856 5848 5835 5821 5826 5826 5819 5814 5811 5804
5837 5815 5863 5881 5896 5898 5883 5884 5836 5812 5789 5786 5796 5808 5809 5852 5863 5870 5858 5864 5869 5874 5876 5878 5878 5880 5879 5880 5886 5882 5874 5871 5870 5861 5846 5832 5821 5819 5826 5819 5812 5805 5804 5799
5841 5825 5837 5864 5865 5860 5862 5852 5845 5826 5807 5772 5766 5789 5838 5851 5850 5845 5852 5854 5859 5862 5864 5867 5870 5872 5876 5880 5879 5870 5867 5864 5859 5846 5832 5810 5806 5818 5819 5811 5800 5797 5794 5790
5845 5819 5804 5842 5877 5882 5883 5864 5840 5803 5809 5792 5785 5784 5839 5851 5852 5854 5851 5855 5855 5856 5853 5857 5860 5860 5860 5861 5860 5857 5856 5850 5836 5826 5821 5803 5785 5776 5795 5794 5791 5791 5788 5782
5844 5816 5796 5818 5853 5874 5865 5867 5862 5833 5816 5808 5780 5782 5839 5842 5846 5850 5850 5849 5849 5850 5847 5847 5850 5851 5851 5847 5835 5835 5829 5824 5815 5816 5799 5800 5803 5782 5786 5793 5789 5782 5776 5774
5852 5826 5813 5798 5825 5844 5848 5854 5859 5834 5804 5797 5793 5805 5819 5831 5834 5839 5842 5843 5841 5839 5836 5835 5835 5838 5840 5832 5819 5814 5815 5828 5803 5790 5793 5795 5794 5781 5776 5779 5776 5771 5770 5766
5842 5820 5833 5843 5849 5856 5854 5846 5849 5843 5839 5810 5804 5805 5821 5830 5830 5834 5837 5837 5835 5830 5828 5827 5822 5823 5823 5815 5805 5796 5788 5786 5773 5768 5777 5776 5775 5770 5763 5758 5762 5761 5764 5757
5850 5831 5843 5831 5850 5848 5839 5845 5837 5829 5826 5815 5810 5810 5828 5830 5831 5827 5826 5824 5817 5814 5813 5815 5814 5809 5808 5806 5798 5791 5779 5771 5771 5767 5768 5767 5769 5764 5755 5754 5753 5741 5724 5739
5846 5833 5817 5816 5835 5836 5808 5826 5828 5824 5823 5819 5793 5809 5821 5815 5816 5816 5815 5808 5803 5802 5800 5798 5795 5792 5791 5789 5785 5777 5772 5765 5760 5759 5761 5760 5755 5753 5747 5732 5734 5732 5732 5734
5837 5823 5804 5797 5811 5780 5811 5831 5831 5818 5812 5814 5809 5809 5813 5810 5810 5810 5809 5799 5794 5792 5787 5784 5781 5778 5775 5773 5770 5765 5761 5754 5748 5743 5744 5745 5742 5740 5734 5730 5727 5722 5728 5726
5845 5813 5779 5775 5762 5785 5816 5824 5817 5801 5788 5805 5799 5803 5804 5807 5801 5791 5798 5796 5788 5784 5780 5774 5773 5768 5763 5758 5754 5748 5742 5738 5735 5730 5725 5725 5725 5722 5722 5724 5723 5719 5714 5709
5820 5816 5794 5764 5758 5756 5803 5828 5837 5822 5768 5804 5802 5796 5796 5792 5762 5767 5789 5789 5783 5779 5774 5765 5760 5754 5748 5743 5738 5730 5724 5718 5714 5714 5714 5711 5707 5706 5706 5706 5707 5709 5707 5705
5782 5780 5770 5757 5759 5774 5819 5832 5838 5783 5772 5799 5801 5796 5790 5774 5770 5777 5779 5775 5775 5771 5767 5761 5754 5747 5739 5733 5726 5720 5713 5707 5707 5705 5701 5699 5699 5697 5696 5695 5694 5693 5693 5690
5787 5770 5765 5756 5754 5762 5822 5820 5797 5787 5794 5794 5791 5787 5777 5774 5771 5768 5766 5763 5761 5758 5756 5752 5744 5736 5730 5723 5714 5707 5699 5701 5694 5692 5689 5686 5686 5686 5687 5685 5684 5682 5682 5681
5780 5789 5776 5775 5766 5789 5799 5796 5797 5791 5784 5784 5780 5778 5772 5764 5759 5757 5753 5753 5748 5746 5741 5738 5730 5723 5714 5707 5699 5691 5689 5687 5690 5684 5680 5680 5679 5681 5682 5678 5680 5677 5678 5676
5800 5803 5774 5770 5777 5780 5787 5791 5789 5788 5781 5779 5775 5769 5763 5754 5750 5744 5740 5736 5732 5729 5722 5720 5710 5699 5693 5688 5683 5679 5674 5676 5672 5672 5672 5674 5677 5679 5679 5677 5677 5674 5673 5675
5788 5793 5765 5755 5768 5772 5776 5778 5777 5777 5773 5770 5767 5761 5753 5749 5743 5737 5728 5722 5717 5713 5707 5701 5692 5684 5678 5675 5668 5665 5662 5661 5659 5664 5666 5667 5671 5673 5675 5676 5673 5670 5672 5672
5784 5774 5755 5742 5762 5759 5759 5767 5770 5762 5758 5757 5755 5750 5745 5739 5732 5727 5715 5710 5705 5699 5693 5687 5680 5675 5670 5666 5661 5659 5656 5653 5654 5656 5658 5660 5662 5666 5668 5667 5671 5671 5671 5671